User: anonymous   Login
Location: Seattle
(47.6064°N, 122.3308°W)
Time: 22:16:40
(UTC-08:00)
Language:

Tiros 1 - Orbit

View from above orbital plane
View from above orbital plane
View from above satellite
View from above satellite

Ground track
Ground track

The orbit data is extracted from the following two-line orbital elements,

1 00029U 60002B   21334.77547227  .00000000  00000-0  30885-4 0  9991
2 00029  48.3805 320.9327 0024240 344.3537  15.6624 14.74483586296942
Epoch (UTC): 30 November 2021 18:36:40
Eccentricity: 0.0024240
inclination: 48.3805°
perigee height: 630 km
apogee height: 664 km
right ascension of ascending node: 320.9327°
argument of perigee: 344.3537°
revolutions per day: 14.74483586
mean anomaly at epoch: 15.6624°
orbit number at epoch: 29694

The dashed part of the orbit path shows where the satellite is in the earth's shadow,  

DLR